TimeEDT,TemperatureF,Dew PointF,Humidity,Sea Level PressureIn,VisibilityMPH,Wind Direction,Wind SpeedMPH,Gust SpeedMPH,PrecipitationIn,Events,Conditions,WindDirDegrees,DateUTC
12:07 AM,59.0,57.2,94,29.80,5.0,NW,3.5,-,0.00,Rain,Light Rain,320,2013-06-08 04:07:00
12:56 AM,59.0,57.9,96,29.80,4.0,Calm,Calm,-,0.02,Rain,Light Rain,0,2013-06-08 04:56:00
1:26 AM,57.2,57.2,100,29.80,2.5,NW,4.6,-,0.00,Rain,Light Rain,310,2013-06-08 05:26:00
1:33 AM,57.2,57.2,100,29.79,1.8,WNW,4.6,-,0.02,Rain,Rain,300,2013-06-08 05:33:00
1:46 AM,57.2,57.2,100,29.79,2.0,Calm,Calm,-,0.02,Rain,Light Rain,0,2013-06-08 05:46:00
1:56 AM,57.9,56.8,96,29.79,2.5,WNW,3.5,-,0.03,Rain,Light Rain,300,2013-06-08 05:56:00
2:22 AM,57.2,57.2,100,29.78,1.8,WNW,4.6,-,0.02,Rain,Light Rain,300,2013-06-08 06:22:00
2:27 AM,57.2,57.2,100,29.78,1.0,NW,4.6,-,0.02,Rain,Light Rain,310,2013-06-08 06:27:00
2:29 AM,57.2,57.2,100,29.78,0.5,WNW,4.6,-,0.02,Fog-Rain,Light Rain,300,2013-06-08 06:29:00
2:39 AM,-9999,-9999,N/A,-9999,-9999.0,WNW,4.6,-,N/A,,Unknown,300,2013-06-08 06:39:00
2:42 AM,-9999,-9999,N/A,-9999,-9999.0,WNW,5.8,-,N/A,,Unknown,300,2013-06-08 06:42:00
2:56 AM,-9999,-9999,N/A,-9999,-9999.0,WNW,6.9,-,N/A,,Unknown,300,2013-06-08 06:56:00
3:00 AM,57.2,57.2,100,29.78,0.2,WNW,5.8,-,0.00,Fog-Rain,Light Rain,300,2013-06-08 07:00:00
3:19 AM,-9999,-9999,N/A,-9999,-9999.0,NW,9.2,-,N/A,,Unknown,310,2013-06-08 07:19:00
3:40 AM,57.2,55.4,94,29.79,0.2,NW,6.9,-,0.00,Fog-Rain,Light Rain,310,2013-06-08 07:40:00
3:56 AM,56.8,55.9,97,29.79,1.0,NW,11.5,-,0.00,Rain,Light Rain,320,2013-06-08 07:56:00
3:58 AM,57.2,55.4,94,29.79,1.5,NW,11.5,-,0.00,Rain,Light Rain,320,2013-06-08 07:58:00
4:12 AM,57.2,55.4,94,29.80,1.0,NW,9.2,-,0.00,Rain,Light Rain,320,2013-06-08 08:12:00
4:20 AM,55.4,55.4,100,29.80,0.5,NW,9.2,-,0.00,Fog,Fog,320,2013-06-08 08:20:00
4:56 AM,55.9,55.9,100,29.81,0.5,NW,11.5,-,0.00,Fog,Fog,320,2013-06-08 08:56:00
5:16 AM,55.4,55.4,100,29.82,0.8,NW,6.9,-,0.00,Rain,Light Rain,320,2013-06-08 09:16:00
5:23 AM,55.4,55.4,100,29.82,1.0,NNW,5.8,-,0.00,Rain,Light Rain,340,2013-06-08 09:23:00
5:33 AM,55.4,55.4,100,29.82,0.5,NNW,5.8,-,0.00,Fog-Rain,Light Rain,330,2013-06-08 09:33:00
5:44 AM,55.4,55.4,100,29.83,0.8,NW,10.4,-,0.00,Rain,Light Rain,320,2013-06-08 09:44:00
5:56 AM,55.9,55.9,100,29.84,0.8,NW,6.9,-,0.00,Rain,Light Rain,320,2013-06-08 09:56:00
6:13 AM,55.4,55.4,100,29.84,1.0,NW,4.6,-,0.00,Rain,Light Rain,310,2013-06-08 10:13:00
6:32 AM,55.4,55.4,100,29.86,0.5,WNW,8.1,-,0.00,Fog-Rain,Light Rain,300,2013-06-08 10:32:00
6:47 AM,55.4,55.4,100,29.87,0.5,WNW,9.2,-,0.00,Fog-Rain,Light Rain,300,2013-06-08 10:47:00
6:56 AM,55.9,55.9,100,29.87,0.1,WNW,11.5,-,0.00,Fog-Rain,Light Rain,300,2013-06-08 10:56:00
7:56 AM,55.9,55.9,100,29.89,0.1,NW,9.2,-,0.00,Fog-Rain,Light Rain,310,2013-06-08 11:56:00
8:12 AM,55.4,55.4,100,29.90,0.1,NW,9.2,-,0.00,Fog-Rain,Light Rain,310,2013-06-08 12:12:00
8:30 AM,55.4,55.4,100,29.91,0.2,NW,8.1,-,0.00,Fog,Fog,310,2013-06-08 12:30:00
8:56 AM,55.9,55.9,100,29.92,1.0,NW,9.2,-,0.00,Rain,Light Rain,310,2013-06-08 12:56:00
9:56 AM,56.8,55.9,97,29.94,1.5,WNW,9.2,-,0.00,,Mist,300,2013-06-08 13:56:00
10:34 AM,57.2,57.2,100,29.93,3.0,NW,6.9,-,N/A,,Overcast,320,2013-06-08 14:34:00
10:56 AM,57.9,56.8,96,29.94,10.0,NW,8.1,-,N/A,,Overcast,310,2013-06-08 14:56:00
11:33 AM,59.0,57.2,94,29.96,1.5,NW,6.9,-,0.00,Rain,Light Rain,310,2013-06-08 15:33:00
11:56 AM,59.0,56.8,93,29.98,3.0,WNW,5.8,-,0.00,Rain,Light Rain,290,2013-06-08 15:56:00
12:56 PM,59.0,56.8,93,29.98,6.0,NW,6.9,-,0.00,,Overcast,310,2013-06-08 16:56:00
1:56 PM,61.0,57.9,90,29.98,5.0,NNW,8.1,-,0.00,Rain,Light Rain,330,2013-06-08 17:56:00
1:58 PM,60.8,57.2,88,29.98,4.0,NNW,6.9,-,0.00,Rain,Light Rain,330,2013-06-08 17:58:00
2:05 PM,60.8,57.2,88,29.98,9.0,NNW,5.8,-,0.00,,Overcast,330,2013-06-08 18:05:00
2:56 PM,63.0,56.8,80,29.99,10.0,WNW,5.8,-,0.00,,Overcast,300,2013-06-08 18:56:00
3:56 PM,61.9,56.8,84,30.00,10.0,WNW,4.6,-,0.00,,Overcast,300,2013-06-08 19:56:00
4:56 PM,63.9,56.8,78,30.01,10.0,NNW,6.9,-,0.00,,Overcast,340,2013-06-08 20:56:00
5:56 PM,64.9,56.8,75,30.01,10.0,North,5.8,-,N/A,,Mostly Cloudy,350,2013-06-08 21:56:00
6:56 PM,63.0,56.8,80,30.03,10.0,NNW,5.8,-,N/A,,Mostly Cloudy,340,2013-06-08 22:56:00
7:56 PM,61.0,56.8,86,30.05,10.0,Calm,Calm,-,N/A,,Mostly Cloudy,0,2013-06-08 23:56:00
8:56 PM,57.9,55.9,93,30.06,10.0,Calm,Calm,-,N/A,,Mostly Cloudy,0,2013-06-09 00:56:00
9:56 PM,54.0,52.9,96,30.09,3.0,Calm,Calm,-,N/A,,Mostly Cloudy,0,2013-06-09 01:56:00
10:56 PM,54.9,54.9,100,30.11,8.0,Calm,Calm,-,N/A,,Overcast,0,2013-06-09 02:56:00
11:56 PM,55.9,54.9,96,30.12,7.0,Calm,Calm,-,N/A,,Overcast,0,2013-06-09 03:56:00